BREEZE-M DEB (TANK), 36103

Orbit data source: Space-Track

BREEZE-M DEB (TANK), 36103 is space debris in HEO originally from a launch on Tue, 24 Nov 2009 UTC launched from the Tyuratam Missile And Space Complex (TTMTR). Debris objects in space refer to the collection of defunct objects orbiting the Earth. Examples of debris include non-operational satellites, rocket bodies, and fragments generated from explosions, collisions, or faulty payload assembly.

Loading next visibility...
Identifier
36103, 2009-065C
Orbit
HEO
Country
Flag of CISCIS
Related business
Manufacturer
Khrunichev
Mission
Spacecraft
Bus & Motor
BRIZ TANK, Unknown motor
Mass
~1,000 kg wet, 1,000 kg dry
Launch date (UTC)
2009-11-24 (16 years ago)
Launch vehicle
Unknown
Launch site
Tyuratam Missile And Space Complex (TTMTR)
Object type
Payload
Rocket body
Debris
Shape & HBR
Torus, 2.0 m
Radar Cross Section
8.218 m², Large (>1 m²)

Expand to show TLE details & history
Last TLE update: 10 hours ago

TLE from 10 hours ago
0 BREEZE-M DEB (TANK)
1 36103U 09065C   25346.88697217  .00004682  00000-0  12205-2 0  9993
2 36103  49.3336 196.3894 5208665 183.7938 169.8562  5.24661985298297
Epoch: 2025-12-12T21:17Z
TLE epoch observation values (Epoch: 2025-12-12T21:17:14.395Z)
Latitude
-0.00003°
Longitude
155.25976°
Altitude
14,848.441 km
Speed
3.012 km/s
True Right ascension
13h 05m 34s
True Declination
0° 00' 00"
Sunlit
Object was in daylight at epoch
Visualization orbit readout
Latitude
Unknown
Longitude
Unknown
Altitude
Unknown
Speed
Unknown
Apparent Right ascension
Unknown
Apparent Declination
Unknown
Sunlit
N/A
Visualization observer readout
Local Sidereal Time
05:21:13
Azimuth
Unknown
Elevation
Unknown
Doppler factor
Unknown
Orbital elements
Apogee altitude
14,899.741 km
Perigee altitude
325.242 km
Semi-major axis
13,990.629 km
Eccentricity
0.52087
Inclination
49.3336°
RAAN
196.3894°
Arg. of periapsis
183.7938°
True anomaly
176.25057°
Mean anomaly
169.8562°
Eccentric anomaly
173.32508°
Mean motion
1.31156 °/min
Orbital period
274.48 mins
BSTAR
0.0012205
Loading maneuver chart data...
Computing Atmospheric mass density...
Loading historical data...
Loading historical data...
Loading historical data...
Loading historical data...
Loading historical data...
Loading historical data...
Loading historical data...
Other satellites on launch #65 in the year 2009 (2009-11-24 UTC)

Documentation

Showing up to 5 results
|